Location: Newark
(51.3318°N, 0.0053°E)
Time: 00:22:23
(UTC+00:00)

LO-87 - Pass Details

Date: 29 June 2022
Orbit: 450 x 466 km, 97.4° (Epoch: 15 August)

Event Time Altitude Azimuth Distance (km) Brightness Sun altitude
Exits shadow 22:53:18 21° 128° (SE) 1,101 ? -13.9°
Maximum altitude 22:55:12 39° 70° (ENE) 708 ? -14.0°
Drops below altitude 10° 22:58:29 10° 0° (N) 1,629 ? -14.1°
Sets 23:00:37 0° 353° (N) 2,514 ? -14.2°
